Location: Antioch
(38.0049°N, 121.8058°W)
Time: 03:47:30
(UTC+00:00)

Cosmos 2208 Rocket - Pass Details

Date: 27 May 2026
Orbit: 751 x 800 km, 74.0° (Epoch: 9 June)

Event Time Altitude Azimuth Distance (km) Brightness Sun altitude
Exits shadow 08:30:47 32° 300° (WNW) 1,294 5.3 -30.3°
Drops below altitude 10° 08:35:14 10° 359° (N) 2,300 7.4 -30.2°
Sets 08:37:50 0° 9° (N) 3,223 8.4 -30.2°
